| time (UTC) | temp F | wind direction | speed knots | gust knots | rain 1hr in | rain 24hr in | rain mn in | humidity % | barometer mb |
| 20260508014552 | 52 | 332 | 2.6 | 6.1 | 0.00 | 0.03 | 0.01 | 49 | 1006.8 |
| 20260508014047 | 52 | 326 | 0.9 | 4.3 | 0.00 | 0.03 | 0.01 | 49 | 1006.7 |
| 20260508013546 | 52 | 48 | 0.9 | 4.3 | 0.00 | 0.03 | 0.01 | 50 | 1006.7 |
| 20260508013053 | 51 | 25 | 0.9 | 4.3 | 0.00 | 0.03 | 0.01 | 52 | 1006.5 |
| 20260508012549 | 51 | 0 | 0.0 | 1.7 | 0.00 | 0.03 | 0.01 | 55 | 1006.4 |
| 20260508012046 | 51 | 0 | 0.0 | 0.9 | 0.00 | 0.03 | 0.01 | 51 | 1006.4 |
| 20260508011553 | 52 | 0 | 0.0 | 0.0 | 0.00 | 0.03 | 0.01 | 52 | 1006.3 |
| 20260508011048 | 52 | 0 | 0.0 | 0.0 | 0.00 | 0.03 | 0.01 | 50 | 1006.0 |
| 20260508010549 | 52 | 0 | 0.0 | 0.9 | 0.00 | 0.03 | 0.01 | 49 | 1006.1 |
| 20260508005549 | 53 | 0 | 0.0 | 0.9 | 0.00 | 0.03 | 0.01 | 47 | 1006.0 |
| 20260508005047 | 53 | 0 | 0.0 | 0.9 | 0.00 | 0.03 | 0.01 | 46 | 1006.0 |
| 20260508004554 | 53 | 0 | 0.0 | 2.6 | 0.00 | 0.03 | 0.01 | 47 | 1005.9 |
| 20260508004050 | 53 | 275 | 0.0 | 2.6 | 0.00 | 0.03 | 0.01 | 46 | 1005.9 |
| 20260508003548 | 54 | 269 | 0.0 | 2.6 | 0.00 | 0.03 | 0.01 | 44 | 1005.7 |
| 20260508003113 | 54 | 267 | 0.9 | 4.3 | 0.00 | 0.03 | 0.01 | 44 | 1005.6 |
| 20260508002548 | 54 | 259 | 0.9 | 4.3 | 0.00 | 0.03 | 0.01 | 44 | 1005.5 |
| 20260508002049 | 54 | 288 | 0.0 | 2.6 | 0.00 | 0.03 | 0.01 | 44 | 1005.4 |
| 20260508001556 | 54 | 242 | 0.9 | 3.5 | 0.00 | 0.03 | 0.01 | 45 | 1005.4 |
| 20260508001049 | 55 | 310 | 0.0 | 6.1 | 0.00 | 0.03 | 0.01 | 44 | 1005.4 |
| 20260508000550 | 55 | 290 | 0.9 | 6.1 | 0.00 | 0.03 | 0.01 | 43 | 1005.3 |
| 20260508000054 | 55 | 272 | 0.9 | 4.3 | 0.00 | 0.03 | 0.01 | 43 | 1005.2 |
| 20260507235549 | 56 | 271 | 1.7 | 4.3 | 0.00 | 0.03 | 0.01 | 41 | 1005.3 |
| 20260507235049 | 56 | 279 | 1.7 | 6.1 | 0.00 | 0.03 | 0.01 | 41 | 1005.2 |
| 20260507234556 | 56 | 287 | 3.5 | 6.1 | 0.00 | 0.03 | 0.01 | 41 | 1005.2 |
| 20260507234051 | 57 | 267 | 0.9 | 7.0 | 0.00 | 0.03 | 0.01 | 41 | 1005.2 |
| 20260507233546 | 57 | 264 | 1.7 | 7.8 | 0.00 | 0.03 | 0.01 | 41 | 1005.1 |
| 20260507233053 | 58 | 288 | 2.6 | 9.6 | 0.00 | 0.03 | 0.01 | 39 | 1005.0 |
| 20260507232550 | 58 | 291 | 5.2 | 9.6 | 0.00 | 0.03 | 0.01 | 39 | 1005.0 |
| 20260507232047 | 58 | 253 | 4.3 | 9.6 | 0.00 | 0.03 | 0.01 | 39 | 1005.1 |
| 20260507231553 | 59 | 240 | 2.6 | 7.8 | 0.00 | 0.03 | 0.01 | 37 | 1004.9 |
| 20260507231048 | 59 | 293 | 2.6 | 9.6 | 0.00 | 0.03 | 0.01 | 37 | 1004.9 |
| 20260507230549 | 59 | 278 | 4.3 | 9.6 | 0.00 | 0.03 | 0.01 | 37 | 1004.8 |
| 20260507230107 | 59 | 239 | 4.3 | 11.3 | 0.00 | 0.03 | 0.01 | 37 | 1004.7 |
| 20260507225546 | 59 | 295 | 6.1 | 11.3 | 0.00 | 0.04 | 0.01 | 37 | 1004.9 |
| 20260507225050 | 59 | 280 | 6.1 | 13.0 | 0.00 | 0.04 | 0.01 | 36 | 1004.8 |
| 20260507224555 | 60 | 259 | 6.1 | 13.0 | 0.00 | 0.04 | 0.01 | 37 | 1004.7 |
| 20260507224048 | 60 | 296 | 5.2 | 13.0 | 0.00 | 0.04 | 0.01 | 37 | 1004.5 |
| 20260507223549 | 60 | 293 | 7.8 | 13.0 | 0.00 | 0.04 | 0.01 | 36 | 1004.6 |
| 20260507223201 | 60 | 300 | 4.3 | 13.0 | 0.00 | 0.04 | 0.01 | 36 | 1004.5 |
| 20260507222550 | 60 | 299 | 7.0 | 14.8 | 0.00 | 0.04 | 0.01 | 35 | 1004.4 |
| 20260507222050 | 60 | 288 | 7.8 | 14.8 | 0.00 | 0.04 | 0.01 | 37 | 1004.5 |
| 20260507221552 | 60 | 329 | 7.0 | 13.0 | 0.00 | 0.04 | 0.01 | 36 | 1004.3 |
| 20260507221046 | 60 | 291 | 7.0 | 13.0 | 0.00 | 0.04 | 0.01 | 35 | 1004.3 |
| 20260507220545 | 60 | 309 | 9.6 | 13.0 | 0.00 | 0.04 | 0.01 | 34 | 1004.3 |
| 20260507220049 | 60 | 260 | 7.8 | 15.6 | 0.00 | 0.04 | 0.01 | 36 | 1004.2 |
| 20260507215549 | 61 | 295 | 7.8 | 15.6 | 0.00 | 0.09 | 0.01 | 37 | 1004.2 |
| 20260507215046 | 61 | 316 | 6.1 | 13.9 | 0.00 | 0.09 | 0.01 | 36 | 1004.3 |
| 20260507214557 | 61 | 296 | 2.6 | 13.9 | 0.00 | 0.09 | 0.01 | 37 | 1004.2 |
| 20260507214049 | 61 | 273 | 7.8 | 13.9 | 0.00 | 0.09 | 0.01 | 35 | 1004.3 |
| 20260507213549 | 61 | 340 | 7.0 | 17.4 | 0.00 | 0.09 | 0.01 | 36 | 1004.2 |
| 20260507213121 | 61 | 269 | 6.1 | 17.4 | 0.00 | 0.09 | 0.01 | 38 | 1004.3 |
| 20260507212551 | 61 | 275 | 5.2 | 12.2 | 0.00 | 0.09 | 0.01 | 36 | 1004.1 |
| 20260507212049 | 61 | 240 | 5.2 | 14.8 | 0.00 | 0.09 | 0.01 | 39 | 1004.2 |
| 20260507211552 | 61 | 317 | 5.2 | 14.8 | 0.00 | 0.09 | 0.01 | 37 | 1004.3 |
| 20260507211049 | 61 | 281 | 7.8 | 15.6 | 0.00 | 0.09 | 0.01 | 36 | 1004.3 |
| 20260507210551 | 61 | 316 | 9.6 | 15.6 | 0.00 | 0.09 | 0.01 | 35 | 1004.3 |
| 20260507210055 | 61 | 264 | 7.8 | 14.8 | 0.00 | 0.09 | 0.01 | 37 | 1004.0 |
| 20260507205549 | 61 | 261 | 5.2 | 13.9 | 0.00 | 0.15 | 0.01 | 39 | 1004.1 |
| 20260507205053 | 61 | 336 | 7.8 | 14.8 | 0.00 | 0.15 | 0.01 | 38 | 1004.2 |
| 20260507204552 | 61 | 299 | 9.6 | 14.8 | 0.00 | 0.15 | 0.01 | 37 | 1003.9 |
| 20260507204049 | 62 | 264 | 7.8 | 14.8 | 0.00 | 0.15 | 0.01 | 39 | 1003.9 |
| 20260507203549 | 61 | 303 | 4.3 | 12.2 | 0.00 | 0.15 | 0.01 | 40 | 1003.8 |
| 20260507203051 | 61 | 237 | 7.0 | 16.5 | 0.00 | 0.15 | 0.01 | 39 | 1003.9 |
| 20260507202550 | 60 | 270 | 7.0 | 16.5 | 0.00 | 0.15 | 0.01 | 40 | 1004.0 |
| 20260507202052 | 61 | 252 | 10.4 | 17.4 | 0.00 | 0.15 | 0.01 | 39 | 1004.0 |
| 20260507201609 | 61 | 296 | 10.4 | 18.2 | 0.00 | 0.15 | 0.01 | 37 | 1003.8 |
| 20260507201047 | 61 | 282 | 11.3 | 18.2 | 0.00 | 0.15 | 0.01 | 38 | 1004.0 |
| 20260507200546 | 61 | 251 | 9.6 | 18.2 | 0.00 | 0.15 | 0.01 | 38 | 1003.9 |
| 20260507200104 | 61 | 289 | 7.0 | 13.0 | 0.00 | 0.15 | 0.01 | 39 | 1003.8 |
| 20260507195552 | 61 | 250 | 8.7 | 12.2 | 0.00 | 0.26 | 0.01 | 39 | 1004.0 |
| 20260507195050 | 61 | 311 | 4.3 | 16.5 | 0.00 | 0.26 | 0.01 | 40 | 1004.0 |
| 20260507194558 | 61 | 291 | 7.0 | 16.5 | 0.00 | 0.26 | 0.01 | 43 | 1004.0 |
| 20260507194052 | 61 | 322 | 9.6 | 18.2 | 0.00 | 0.26 | 0.01 | 39 | 1004.2 |
| 20260507193549 | 60 | 266 | 10.4 | 18.2 | 0.00 | 0.26 | 0.01 | 40 | 1004.1 |
| 20260507193053 | 61 | 300 | 10.4 | 17.4 | 0.00 | 0.26 | 0.01 | 41 | 1004.0 |
| 20260507192548 | 61 | 249 | 8.7 | 20.0 | 0.00 | 0.26 | 0.01 | 41 | 1004.0 |
| 20260507192047 | 61 | 250 | 6.1 | 20.0 | 0.00 | 0.26 | 0.01 | 41 | 1004.2 |
| 20260507191553 | 61 | 236 | 11.3 | 20.0 | 0.00 | 0.26 | 0.01 | 39 | 1004.3 |
| 20260507191049 | 61 | 278 | 7.0 | 14.8 | 0.00 | 0.26 | 0.01 | 43 | 1004.3 |
| 20260507190549 | 61 | 311 | 7.8 | 14.8 | 0.00 | 0.26 | 0.01 | 39 | 1004.3 |
| 20260507190056 | 61 | 283 | 7.8 | 18.2 | 0.00 | 0.26 | 0.01 | 38 | 1004.3 |
| 20260507185550 | 61 | 284 | 8.7 | 18.2 | 0.00 | 0.28 | 0.01 | 40 | 1004.4 |
| 20260507185050 | 61 | 268 | 7.8 | 16.5 | 0.00 | 0.28 | 0.01 | 43 | 1004.3 |
| 20260507184555 | 61 | 292 | 7.8 | 16.5 | 0.00 | 0.28 | 0.01 | 41 | 1004.3 |
| 20260507184047 | 60 | 276 | 7.8 | 15.6 | 0.00 | 0.28 | 0.01 | 39 | 1004.3 |
| 20260507183550 | 61 | 317 | 7.8 | 15.6 | 0.00 | 0.28 | 0.01 | 39 | 1004.5 |
| 20260507183058 | 60 | 304 | 6.1 | 13.0 | 0.00 | 0.28 | 0.01 | 43 | 1004.5 |
| 20260507182547 | 61 | 297 | 7.8 | 14.8 | 0.00 | 0.28 | 0.01 | 43 | 1004.6 |
| 20260507182050 | 60 | 304 | 7.0 | 14.8 | 0.00 | 0.28 | 0.01 | 43 | 1004.4 |
| 20260507181559 | 60 | 257 | 7.8 | 14.8 | 0.00 | 0.28 | 0.01 | 45 | 1004.3 |
| 20260507181051 | 60 | 255 | 5.2 | 13.9 | 0.00 | 0.28 | 0.01 | 45 | 1004.5 |
| 20260507180548 | 59 | 268 | 8.7 | 15.6 | 0.00 | 0.28 | 0.01 | 50 | 1004.6 |
| 20260507180057 | 59 | 283 | 7.8 | 15.6 | 0.00 | 0.28 | 0.01 | 48 | 1004.6 |
| 20260507175550 | 60 | 304 | 7.0 | 14.8 | 0.00 | 0.28 | 0.01 | 47 | 1004.6 |
| 20260507175049 | 59 | 284 | 7.0 | 13.0 | 0.00 | 0.28 | 0.01 | 55 | 1004.5 |
| 20260507174559 | 59 | 255 | 5.2 | 14.8 | 0.00 | 0.28 | 0.01 | 55 | 1004.6 |
| 20260507174048 | 59 | 270 | 7.0 | 16.5 | 0.00 | 0.28 | 0.01 | 54 | 1004.7 |
| 20260507173546 | 59 | 293 | 8.7 | 16.5 | 0.00 | 0.28 | 0.01 | 55 | 1004.9 |
| 20260507173059 | 59 | 307 | 7.0 | 16.5 | 0.00 | 0.28 | 0.01 | 61 | 1004.8 |
| 20260507172553 | 58 | 283 | 8.7 | 16.5 | 0.00 | 0.28 | 0.01 | 57 | 1004.9 |
| 20260507172047 | 59 | 272 | 9.6 | 16.5 | 0.00 | 0.28 | 0.01 | 55 | 1004.7 |
| 20260507171603 | 60 | 263 | 5.2 | 14.8 | 0.00 | 0.28 | 0.01 | 53 | 1004.9 |
| 20260507171048 | 60 | 274 | 6.1 | 14.8 | 0.00 | 0.28 | 0.01 | 59 | 1005.1 |
| 20260507170549 | 60 | 302 | 5.2 | 19.1 | 0.00 | 0.28 | 0.01 | 53 | 1005.1 |
| 20260507170056 | 59 | 285 | 9.6 | 20.0 | 0.00 | 0.28 | 0.01 | 51 | 1005.1 |
| 20260507165546 | 60 | 277 | 12.2 | 20.0 | 0.00 | 0.28 | 0.01 | 53 | 1005.0 |
| 20260507165049 | 60 | 309 | 9.6 | 19.1 | 0.00 | 0.28 | 0.01 | 54 | 1005.2 |
| 20260507164553 | 60 | 270 | 7.8 | 13.9 | 0.00 | 0.28 | 0.01 | 53 | 1005.2 |
| 20260507164045 | 59 | 265 | 6.1 | 12.2 | 0.00 | 0.28 | 0.01 | 57 | 1005.2 |
| 20260507163548 | 58 | 276 | 5.2 | 10.4 | 0.00 | 0.28 | 0.01 | 57 | 1005.3 |
| 20260507163056 | 58 | 262 | 6.1 | 15.6 | 0.00 | 0.28 | 0.01 | 58 | 1005.3 |
| 20260507162549 | 59 | 280 | 6.1 | 15.6 | 0.00 | 0.28 | 0.01 | 59 | 1005.3 |
| 20260507162049 | 59 | 281 | 7.8 | 15.6 | 0.00 | 0.28 | 0.01 | 57 | 1005.3 |
| 20260507161607 | 58 | 257 | 7.8 | 14.8 | 0.00 | 0.28 | 0.01 | 56 | 1005.3 |
| 20260507161048 | 58 | 245 | 9.6 | 14.8 | 0.00 | 0.28 | 0.01 | 57 | 1005.3 |
| 20260507160549 | 58 | 290 | 7.8 | 13.0 | 0.00 | 0.28 | 0.01 | 60 | 1005.4 |
| 20260507160058 | 58 | 303 | 7.8 | 13.0 | 0.00 | 0.28 | 0.01 | 58 | 1005.5 |
| 20260507155548 | 59 | 283 | 5.2 | 11.3 | 0.00 | 0.28 | 0.01 | 59 | 1005.7 |
| 20260507155048 | 58 | 292 | 6.1 | 10.4 | 0.00 | 0.28 | 0.01 | 59 | 1005.7 |
| 20260507154553 | 59 | 286 | 7.0 | 10.4 | 0.00 | 0.28 | 0.01 | 56 | 1005.8 |
| 20260507154048 | 59 | 306 | 7.0 | 13.9 | 0.00 | 0.28 | 0.01 | 58 | 1005.8 |
| 20260507153550 | 59 | 256 | 7.0 | 13.9 | 0.00 | 0.28 | 0.01 | 56 | 1005.9 |
| 20260507153111 | 59 | 265 | 7.0 | 13.9 | 0.00 | 0.28 | 0.01 | 55 | 1005.9 |
| 20260507152549 | 59 | 298 | 8.7 | 13.9 | 0.00 | 0.28 | 0.01 | 56 | 1005.9 |
| 20260507152049 | 59 | 308 | 6.1 | 16.5 | 0.00 | 0.28 | 0.01 | 60 | 1005.9 |
| 20260507151600 | 59 | 256 | 9.6 | 16.5 | 0.00 | 0.28 | 0.01 | 58 | 1005.8 |
| 20260507151047 | 59 | 254 | 7.8 | 15.6 | 0.00 | 0.28 | 0.01 | 60 | 1005.8 |
| 20260507150549 | 58 | 243 | 9.6 | 14.8 | 0.00 | 0.28 | 0.01 | 57 | 1005.7 |
| 20260507150104 | 58 | 300 | 4.3 | 12.2 | 0.00 | 0.28 | 0.01 | 58 | 1005.7 |
| 20260507145549 | 58 | 285 | 6.1 | 12.2 | 0.00 | 0.28 | 0.01 | 55 | 1005.7 |
| 20260507145049 | 59 | 312 | 4.3 | 11.3 | 0.00 | 0.28 | 0.01 | 56 | 1005.8 |
| 20260507144552 | 59 | 287 | 7.0 | 11.3 | 0.00 | 0.28 | 0.01 | 53 | 1005.6 |
| 20260507144050 | 59 | 259 | 5.2 | 10.4 | 0.00 | 0.28 | 0.01 | 57 | 1005.6 |
| 20260507143550 | 59 | 266 | 2.6 | 11.3 | 0.00 | 0.28 | 0.01 | 56 | 1005.8 |
| 20260507143055 | 58 | 295 | 5.2 | 11.3 | 0.00 | 0.28 | 0.01 | 60 | 1005.6 |
| 20260507142548 | 58 | 265 | 3.5 | 7.0 | 0.00 | 0.28 | 0.01 | 60 | 1005.6 |
| 20260507142050 | 58 | 30 | 3.5 | 9.6 | 0.00 | 0.28 | 0.01 | 62 | 1005.7 |
| 20260507141603 | 58 | 312 | 2.6 | 9.6 | 0.00 | 0.28 | 0.01 | 63 | 1005.9 |
| 20260507141048 | 58 | 277 | 3.5 | 9.6 | 0.00 | 0.28 | 0.01 | 64 | 1005.9 |
| 20260507140550 | 58 | 335 | 2.6 | 9.6 | 0.00 | 0.28 | 0.01 | 66 | 1005.9 |
| 20260507140057 | 57 | 352 | 3.5 | 9.6 | 0.00 | 0.28 | 0.01 | 66 | 1006.0 |
| 20260507135549 | 57 | 272 | 4.3 | 8.7 | 0.00 | 0.28 | 0.01 | 64 | 1006.0 |
| 20260507135052 | 56 | 260 | 3.5 | 7.8 | 0.00 | 0.28 | 0.01 | 66 | 1006.1 |
| 20260507134604 | 56 | 312 | 3.5 | 7.0 | 0.00 | 0.28 | 0.01 | 67 | 1006.3 |
| 20260507134050 | 57 | 271 | 1.7 | 7.0 | 0.00 | 0.28 | 0.01 | 67 | 1006.3 |
| 20260507133549 | 56 | 326 | 2.6 | 9.6 | 0.00 | 0.28 | 0.01 | 69 | 1006.4 |
| 20260507133056 | 56 | 310 | 3.5 | 9.6 | 0.00 | 0.28 | 0.01 | 68 | 1006.2 |
| 20260507132549 | 56 | 307 | 2.6 | 7.0 | 0.00 | 0.28 | 0.01 | 68 | 1006.3 |
| 20260507132048 | 55 | 257 | 2.6 | 7.8 | 0.00 | 0.28 | 0.01 | 71 | 1006.4 |
| 20260507131559 | 55 | 323 | 1.7 | 7.8 | 0.00 | 0.28 | 0.01 | 70 | 1006.4 |
| 20260507131046 | 55 | 302 | 3.5 | 7.8 | 0.00 | 0.28 | 0.01 | 70 | 1006.5 |
| 20260507130550 | 55 | 261 | 2.6 | 7.0 | 0.00 | 0.28 | 0.01 | 72 | 1006.5 |
| 20260507130108 | 54 | 297 | 3.5 | 8.7 | 0.00 | 0.28 | 0.01 | 71 | 1006.5 |
| 20260507125547 | 54 | 296 | 5.2 | 8.7 | 0.00 | 0.28 | 0.01 | 71 | 1006.5 |
| 20260507125048 | 54 | 291 | 3.5 | 8.7 | 0.00 | 0.28 | 0.01 | 74 | 1006.7 |
| 20260507124618 | 53 | 291 | 6.1 | 8.7 | 0.00 | 0.28 | 0.01 | 72 | 1006.5 |
| 20260507124046 | 53 | 300 | 5.2 | 7.8 | 0.00 | 0.28 | 0.01 | 73 | 1006.6 |
| 20260507123546 | 53 | 289 | 2.6 | 7.8 | 0.00 | 0.28 | 0.01 | 74 | 1006.8 |
| 20260507123105 | 53 | 296 | 2.6 | 7.8 | 0.00 | 0.28 | 0.01 | 77 | 1006.8 |
| 20260507122549 | 52 | 326 | 4.3 | 7.8 | 0.00 | 0.28 | 0.01 | 76 | 1006.8 |
| 20260507122049 | 52 | 233 | 0.9 | 3.5 | 0.00 | 0.28 | 0.01 | 81 | 1006.8 |
| 20260507121600 | 51 | 292 | 0.9 | 3.5 | 0.00 | 0.28 | 0.01 | 85 | 1006.8 |
| 20260507121049 | 51 | 311 | 1.7 | 3.5 | 0.00 | 0.28 | 0.01 | 85 | 1006.8 |
| 20260507120548 | 50 | 297 | 0.9 | 2.6 | 0.00 | 0.28 | 0.01 | 86 | 1006.7 |
| 20260507120052 | 50 | 269 | 0.9 | 2.6 | 0.00 | 0.28 | 0.01 | 87 | 1006.8 |
| 20260507115546 | 49 | 260 | 0.9 | 2.6 | 0.00 | 0.28 | 0.01 | 88 | 1006.7 |
| 20260507115045 | 49 | 0 | 0.0 | 2.6 | 0.00 | 0.28 | 0.01 | 89 | 1006.6 |
| 20260507114555 | 49 | 274 | 0.0 | 2.6 | 0.00 | 0.28 | 0.01 | 91 | 1006.7 |
| 20260507114048 | 48 | 249 | 0.9 | 2.6 | 0.00 | 0.28 | 0.01 | 91 | 1007.0 |
| 20260507113552 | 48 | 290 | 0.9 | 1.7 | 0.00 | 0.28 | 0.01 | 91 | 1006.8 |
| 20260507113047 | 48 | 285 | 0.0 | 1.7 | 0.00 | 0.28 | 0.01 | 92 | 1006.6 |
| 20260507112549 | 48 | 291 | 0.0 | 1.7 | 0.00 | 0.28 | 0.01 | 92 | 1006.6 |
| 20260507112047 | 48 | 281 | 0.0 | 3.5 | 0.00 | 0.28 | 0.01 | 93 | 1006.6 |
| 20260507111551 | 48 | 321 | 0.9 | 3.5 | 0.00 | 0.28 | 0.01 | 93 | 1006.6 |
| 20260507111047 | 48 | 296 | 0.9 | 2.6 | 0.00 | 0.28 | 0.01 | 94 | 1006.6 |
| 20260507110546 | 48 | 264 | 0.9 | 2.6 | 0.00 | 0.28 | 0.01 | 94 | 1006.9 |
| 20260507110054 | 48 | 348 | 0.9 | 2.6 | 0.00 | 0.28 | 0.01 | 94 | 1006.6 |
| 20260507105545 | 48 | 0 | 0.9 | 1.7 | 0.00 | 0.28 | 0.01 | 95 | 1006.8 |
| 20260507105053 | 47 | 294 | 0.0 | 1.7 | 0.00 | 0.28 | 0.01 | 95 | 1006.8 |
| 20260507104555 | 47 | 0 | 0.0 | 1.7 | 0.00 | 0.28 | 0.01 | 95 | 1006.8 |
| 20260507104046 | 47 | 297 | 0.0 | 0.9 | 0.00 | 0.28 | 0.01 | 95 | 1006.7 |
| 20260507103547 | 48 | 0 | 0.0 | 2.6 | 0.00 | 0.28 | 0.01 | 95 | 1006.7 |
| 20260507103049 | 47 | 4 | 0.9 | 2.6 | 0.00 | 0.28 | 0.01 | 95 | 1006.7 |
| 20260507102549 | 47 | 305 | 0.0 | 1.7 | 0.00 | 0.28 | 0.01 | 95 | 1007.2 |
| 20260507102047 | 47 | 252 | 0.0 | 1.7 | 0.00 | 0.28 | 0.01 | 95 | 1007.3 |
| 20260507101559 | 47 | 264 | 0.0 | 0.9 | 0.00 | 0.28 | 0.01 | 95 | 1007.0 |
| 20260507101048 | 47 | 257 | 0.0 | 0.9 | 0.00 | 0.28 | 0.01 | 95 | 1006.7 |
| 20260507100546 | 47 | 255 | 0.0 | 0.9 | 0.00 | 0.28 | 0.01 | 95 | 1007.1 |
| 20260507100058 | 48 | 0 | 0.0 | 0.9 | 0.00 | 0.28 | 0.01 | 94 | 1006.8 |
| 20260507095547 | 48 | 0 | 0.0 | 0.9 | 0.00 | 0.28 | 0.01 | 94 | 1006.9 |
| 20260507095047 | 48 | 0 | 0.0 | 2.6 | 0.00 | 0.28 | 0.01 | 94 | 1006.8 |
| 20260507094547 | 48 | 257 | 0.0 | 2.6 | 0.00 | 0.28 | 0.01 | 94 | 1007.0 |
| 20260507094046 | 48 | 252 | 1.7 | 2.6 | 0.00 | 0.28 | 0.01 | 94 | 1006.8 |
| 20260507093546 | 48 | 242 | 1.7 | 1.7 | 0.00 | 0.28 | 0.01 | 94 | 1006.8 |
| 20260507093057 | 48 | 302 | 0.9 | 1.7 | 0.00 | 0.28 | 0.01 | 94 | 1006.2 |
| 20260507092549 | 48 | 0 | 0.0 | 2.6 | 0.00 | 0.28 | 0.01 | 94 | 1006.1 |
| 20260507092045 | 48 | 249 | 0.9 | 2.6 | 0.00 | 0.28 | 0.01 | 94 | 1006.6 |
| 20260507091558 | 48 | 272 | 0.0 | 2.6 | 0.00 | 0.28 | 0.01 | 94 | 1006.7 |
| 20260507091049 | 48 | 0 | 0.0 | 2.6 | 0.00 | 0.28 | 0.01 | 94 | 1006.0 |
| 20260507090549 | 48 | 18 | 0.9 | 2.6 | 0.00 | 0.28 | 0.01 | 93 | 1006.2 |
| 20260507090051 | 48 | 1 | 0.9 | 4.3 | 0.00 | 0.28 | 0.01 | 93 | 1005.9 |
| 20260507085547 | 48 | 297 | 1.7 | 4.3 | 0.00 | 0.28 | 0.01 | 93 | 1006.2 |
| 20260507085048 | 48 | 318 | 2.6 | 3.5 | 0.00 | 0.28 | 0.01 | 93 | 1006.0 |
| 20260507084551 | 48 | 12 | 0.9 | 4.3 | 0.00 | 0.28 | 0.01 | 93 | 1006.1 |
| 20260507084049 | 49 | 340 | 0.9 | 4.3 | 0.00 | 0.28 | 0.01 | 92 | 1006.0 |
| 20260507083549 | 49 | 52 | 1.7 | 4.3 | 0.00 | 0.28 | 0.01 | 92 | 1005.9 |
| 20260507083106 | 49 | 53 | 1.7 | 3.5 | 0.00 | 0.28 | 0.01 | 92 | 1006.0 |
| 20260507082546 | 49 | 25 | 0.9 | 3.5 | 0.00 | 0.28 | 0.01 | 92 | 1006.3 |
| 20260507082049 | 49 | 278 | 0.9 | 3.5 | 0.00 | 0.28 | 0.01 | 92 | 1006.4 |
| 20260507081600 | 49 | 259 | 0.0 | 2.6 | 0.00 | 0.28 | 0.01 | 92 | 1006.4 |
| 20260507081049 | 49 | 0 | 0.0 | 3.5 | 0.00 | 0.28 | 0.01 | 92 | 1006.1 |
| 20260507080549 | 49 | 0 | 0.0 | 3.5 | 0.00 | 0.28 | 0.01 | 92 | 1005.8 |
| 20260507080056 | 49 | 27 | 0.9 | 2.6 | 0.00 | 0.28 | 0.01 | 92 | 1005.7 |
| 20260507075549 | 49 | 313 | 0.0 | 3.5 | 0.00 | 0.28 | 0.01 | 92 | 1005.8 |
| 20260507075049 | 49 | 298 | 0.9 | 3.5 | 0.00 | 0.28 | 0.01 | 92 | 1005.7 |
| 20260507074558 | 49 | 295 | 0.9 | 6.1 | 0.00 | 0.28 | 0.01 | 92 | 1005.7 |
| 20260507074045 | 49 | 346 | 1.7 | 6.1 | 0.00 | 0.28 | 0.01 | 91 | 1005.5 |
| 20260507073545 | 49 | 352 | 2.6 | 6.1 | 0.00 | 0.28 | 0.01 | 91 | 1005.5 |
| 20260507073100 | 49 | 264 | 3.5 | 5.2 | 0.00 | 0.28 | 0.01 | 91 | 1005.9 |
| 20260507072545 | 50 | 283 | 2.6 | 6.1 | 0.00 | 0.28 | 0.01 | 91 | 1005.7 |
| 20260507072048 | 50 | 266 | 1.7 | 7.0 | 0.00 | 0.28 | 0.01 | 92 | 1005.8 |
| 20260507071549 | 50 | 281 | 2.6 | 7.0 | 0.00 | 0.28 | 0.01 | 92 | 1005.9 |
| 20260507071045 | 50 | 308 | 2.6 | 7.0 | 0.00 | 0.28 | 0.01 | 92 | 1005.7 |
| 20260507070550 | 50 | 282 | 2.6 | 5.2 | 0.00 | 0.28 | 0.01 | 92 | 1005.3 |
| 20260507070055 | 50 | 27 | 1.7 | 7.8 | 0.00 | 0.28 | 0.01 | 92 | 1005.0 |
| 20260507065545 | 50 | 342 | 3.5 | 7.8 | 0.00 | 0.28 | 0.01 | 91 | 1005.0 |
| 20260507065045 | 50 | 300 | 4.3 | 7.8 | 0.00 | 0.28 | 0.01 | 92 | 1005.5 |
| 20260507064554 | 50 | 280 | 2.6 | 6.1 | 0.00 | 0.28 | 0.01 | 92 | 1005.4 |
| 20260507064052 | 50 | 267 | 1.7 | 7.0 | 0.00 | 0.28 | 0.01 | 92 | 1005.1 |
| 20260507063545 | 50 | 300 | 3.5 | 7.0 | 0.00 | 0.28 | 0.01 | 93 | 1005.2 |
| 20260507063059 | 50 | 278 | 3.5 | 7.0 | 0.00 | 0.28 | 0.01 | 93 | 1005.1 |
| 20260507062549 | 50 | 264 | 3.5 | 7.8 | 0.00 | 0.28 | 0.01 | 93 | 1005.2 |
| 20260507062047 | 51 | 255 | 4.3 | 7.8 | 0.00 | 0.28 | 0.01 | 93 | 1005.3 |
| 20260507061551 | 51 | 277 | 2.6 | 4.3 | 0.00 | 0.28 | 0.01 | 93 | 1005.2 |
| 20260507061047 | 51 | 271 | 1.7 | 5.2 | 0.00 | 0.28 | 0.01 | 93 | 1005.0 |
| 20260507060546 | 51 | 328 | 1.7 | 5.2 | 0.00 | 0.28 | 0.01 | 93 | 1004.8 |
| 20260507060057 | 51 | 267 | 1.7 | 5.2 | 0.00 | 0.28 | 0.01 | 93 | 1004.8 |
| 20260507055547 | 51 | 252 | 1.7 | 9.6 | 0.00 | 0.28 | 0.01 | 93 | 1005.0 |
| 20260507055046 | 51 | 297 | 2.6 | 9.6 | 0.00 | 0.28 | 0.01 | 93 | 1004.9 |
| 20260507054554 | 51 | 271 | 4.3 | 9.6 | 0.00 | 0.28 | 0.01 | 93 | 1005.0 |
| 20260507054045 | 51 | 298 | 3.5 | 7.8 | 0.00 | 0.28 | 0.01 | 93 | 1004.8 |
| 20260507053547 | 52 | 292 | 5.2 | 7.8 | 0.00 | 0.28 | 0.01 | 92 | 1004.8 |
| 20260507053049 | 52 | 304 | 2.6 | 7.8 | 0.00 | 0.28 | 0.01 | 93 | 1004.7 |
| 20260507052545 | 52 | 264 | 3.5 | 9.6 | 0.00 | 0.28 | 0.01 | 93 | 1004.5 |
| 20260507052045 | 52 | 259 | 5.2 | 9.6 | 0.00 | 0.28 | 0.01 | 93 | 1004.8 |
| 20260507051558 | 52 | 232 | 4.3 | 8.7 | 0.00 | 0.28 | 0.01 | 93 | 1005.0 |
| 20260507051048 | 52 | 300 | 3.5 | 7.0 | 0.00 | 0.28 | 0.01 | 93 | 1004.8 |
| 20260507050550 | 53 | 256 | 2.6 | 9.6 | 0.01 | 0.28 | 0.01 | 93 | 1004.7 |
| 20260507050050 | 53 | 294 | 3.5 | 9.6 | 0.01 | 0.28 | 0.01 | 93 | 1004.7 |
| 20260507045549 | 53 | 290 | 4.3 | 10.4 | 0.01 | 0.28 | 0.01 | 93 | 1004.7 |
| 20260507045046 | 53 | 269 | 3.5 | 10.4 | 0.01 | 0.28 | 0.01 | 94 | 1004.8 |
| 20260507044558 | 53 | 314 | 5.2 | 10.4 | 0.01 | 0.28 | 0.01 | 94 | 1004.9 |
| 20260507044047 | 54 | 264 | 1.7 | 7.0 | 0.01 | 0.28 | 0.01 | 95 | 1004.7 |
| 20260507043547 | 54 | 300 | 4.3 | 7.0 | 0.01 | 0.28 | 0.01 | 94 | 1004.8 |
| 20260507043055 | 54 | 284 | 3.5 | 9.6 | 0.01 | 0.28 | 0.01 | 94 | 1004.4 |
| 20260507042547 | 54 | 228 | 2.6 | 9.6 | 0.01 | 0.28 | 0.01 | 93 | 1004.3 |
| 20260507042047 | 54 | 236 | 6.1 | 13.0 | 0.01 | 0.28 | 0.01 | 93 | 1004.3 |
| 20260507041551 | 55 | 267 | 2.6 | 13.0 | 0.01 | 0.28 | 0.01 | 94 | 1004.1 |
| 20260507041050 | 55 | 311 | 4.3 | 13.0 | 0.00 | 0.27 | 0.00 | 94 | 1004.2 |
| 20260507040547 | 55 | 254 | 2.6 | 7.0 | 0.01 | 0.27 | 0.00 | 94 | 1004.3 |
| 20260507040055 | 55 | 279 | 2.6 | 10.4 | 0.01 | 0.27 | 0.00 | 94 | 1004.3 |
| 20260507035547 | 55 | 281 | 4.3 | 10.4 | 0.01 | 0.27 | 0.27 | 94 | 1004.2 |
| 20260507035047 | 56 | 259 | 6.1 | 10.4 | 0.02 | 0.27 | 0.27 | 95 | 1004.3 |
| 20260507034556 | 56 | 302 | 4.3 | 9.6 | 0.02 | 0.27 | 0.27 | 95 | 1004.4 |
| 20260507034047 | 56 | 266 | 4.3 | 9.6 | 0.02 | 0.27 | 0.27 | 96 | 1004.4 |
| 20260507033547 | 56 | 264 | 4.3 | 9.6 | 0.02 | 0.27 | 0.27 | 97 | 1004.5 |
| 20260507033055 | 56 | 277 | 6.1 | 13.9 | 0.02 | 0.27 | 0.27 | 98 | 1004.5 |
| 20260507032547 | 56 | 270 | 7.0 | 13.9 | 0.02 | 0.27 | 0.27 | 100 | 1004.3 |
| 20260507032050 | 55 | 278 | 2.6 | 8.7 | 0.02 | 0.27 | 0.27 | 100 | 1004.3 |
| 20260507031553 | 55 | 211 | 1.7 | 7.8 | 0.02 | 0.27 | 0.27 | 100 | 1003.9 |
| 20260507031049 | 54 | 299 | 2.6 | 7.8 | 0.02 | 0.27 | 0.27 | 99 | 1004.0 |
| 20260507030546 | 54 | 293 | 0.9 | 3.5 | 0.01 | 0.26 | 0.26 | 99 | 1003.9 |
| 20260507030054 | 54 | 174 | 0.9 | 3.5 | 0.01 | 0.26 | 0.26 | 99 | 1003.6 |
| 20260507025549 | 54 | 0 | 0.0 | 2.6 | 0.01 | 0.26 | 0.26 | 99 | 1003.7 |
| 20260507025050 | 54 | 165 | 1.7 | 4.3 | 0.00 | 0.25 | 0.25 | 99 | 1003.7 |
| 20260507024606 | 54 | 143 | 0.9 | 4.3 | 0.00 | 0.25 | 0.25 | 99 | 1003.7 |
| 20260507024047 | 54 | 187 | 1.7 | 4.3 | 0.00 | 0.25 | 0.25 | 99 | 1003.7 |
| 20260507023552 | 54 | 150 | 1.7 | 5.2 | 0.00 | 0.25 | 0.25 | 99 | 1003.8 |
| 20260507023052 | 54 | 160 | 1.7 | 5.2 | 0.00 | 0.25 | 0.25 | 99 | 1003.9 |
| 20260507022549 | 54 | 152 | 3.5 | 5.2 | 0.00 | 0.25 | 0.25 | 99 | 1003.9 |
| 20260507022047 | 54 | 160 | 3.5 | 5.2 | 0.00 | 0.25 | 0.25 | 99 | 1004.0 |
| 20260507021551 | 54 | 172 | 2.6 | 5.2 | 0.00 | 0.25 | 0.25 | 99 | 1003.9 |
| 20260507021047 | 54 | 165 | 3.5 | 6.1 | 0.00 | 0.25 | 0.25 | 99 | 1004.1 |
| 20260507020547 | 54 | 161 | 3.5 | 6.1 | 0.00 | 0.25 | 0.25 | 99 | 1004.2 |
| 20260507020109 | 54 | 157 | 3.5 | 4.3 | 0.00 | 0.25 | 0.25 | 99 | 1004.4 |
| 20260507015546 | 54 | 150 | 1.7 | 4.3 | 0.00 | 0.25 | 0.25 | 99 | 1004.4 |
| 20260507015047 | 54 | 219 | 1.7 | 4.3 | 0.00 | 0.25 | 0.25 | 99 | 1004.4 |